Find Starlink 3958

NORAD ID: 52535 Int'l Des: 2022-051 Owner: SPXS Country: US Constellation: starlink operational
LEOCIRCULAR

Live Position

Loading 3D Globe...

About Starlink 3958

Description loading...

Upcoming Passes

Passes for default location (London). Set your location on the main map for personalized predictions.

Altitude History

Loading altitude history...

Two-Line Element Set

1 52535U 22051C 26124.61671267 .00000560 00000-0 53295-4 0 9990
2 52535 53.2181 238.0544 0001362 91.9804 268.1344 15.08830902219883
Epoch: May 4, 2026 • Age: 15 hours

Current Status

Altitude 541.5 km
Velocity 7.59 km/s
Sub-Earth Point -4.89°S, 106.8°E
Launch Date May 13, 2022
Age 3.9 years
Type internet

Technical Details

Classification Payload
Mass 297.00 kg
Dry Mass 275.00 kg
Total Mass 297.00 kg
Length 0.20 m
Diameter 2.80 m
Span 9.00 m
Shape Box + pan
Manufacturer SPXS
Bus Type Starlink
Phase Status In Orbit
Owner/State SPXS/US

Most Searched